Tracking 30106 objects as of 23-Jan-2025
HD Live streaming from Space Station
objects crossing your sky now

OBJECT B

Track OBJECT B now!


NORAD ID: 45986
Int'l Code: 2020-053B
Perigee: 35,789.7 km
Apogee: 35,798.2 km
Inclination: 0.0 °
Period: 1,436.1 minutes
Semi major axis: 42164 km
RCS: Unknown
Launch date: July 30, 2020
Source: Commonwealth of Independent States (former USSR) (CIS)
Launch site: TYURATAM MISSILE AND SPACE COMPLEX (TTMTR)

Note: This is a ROCKET BODY
Your satellite tracking list
Your tracking list is empty




NASA's NSSDC Master Catalog

Two Line Element Set (TLE):
1 45986U 20053B   25021.44161541 -.00000117  00000-0  00000-0 0  9998
2 45986   0.0234 282.2703 0001013 234.4069 203.3108  1.00271088 16506
Source of the keplerian elements: AFSPC